Monte Cimone, Italy

5:37 AM CET on December 08, 2016 (GMT +0100)
Monte Cimone

Weather History for LIVC - April, 2013

Change the Weather History Date:

Sunday, April 28, 2013

  Actual Average Record
Temperature  
Mean Temperature 38 °F -  
Max Temperature 40 °F 41 °F 53 °F (2012)
Min Temperature 36 °F 34 °F 26 °F (1998)
Degree Days  
Heating Degree Days 27    
Moisture  
Dew Point 37 °F    
Average Humidity 93    
Maximum Humidity 100    
Minimum Humidity 82    
Precipitation  
Precipitation 0.00 in 0.08 in - ()
Sea Level Pressure  
Sea Level Pressure 29.95 in    
Wind  
Wind Speed 29 mph ()    
Max Wind Speed 59 mph    
Max Gust Speed -    
Visibility 0.0 miles    
Events Fog , Rain    
Averages and records for this station are not official NWS values.
T = Trace of Precipitation, MM = Missing Value Source: Averaged Metar Reports

Daily Weather History Graph

Daily Weather History Graph

Search for Another Location

Airport or City:

Trip Planner

Search our weather history database for the weather conditions in past years. The results will help you decide how hot, cold, wet, or windy it might be!

Date:

Astronomy

Apr. 28, 2013 Rise Set
Actual Time 6:12 AM CEST 8:17 PM CEST
Civil Twilight 5:41 AM CEST 8:48 PM CEST
Nautical Twilight 5:02 AM CEST 9:27 PM CEST
Astronomical Twilight 4:20 AM CEST 10:10 PM CEST
Moon 11:35 PM CEST (4/28) 8:08 AM CEST (4/28)
Length of Visible Light 15h 07m
Length of Day
14h 04m
Waning Gibbous, 91% of the Moon is Illuminated
Apr 28
Waning Gibbous
May 2
Last Quarter
May 10
New
May 18
First Quarter
May 25
Full

Hourly Weather History & Observations

Time (CEST) Temp. Windchill Dew Point Humidity Pressure Visibility Wind Dir Wind Speed Gust Speed Precip Events Conditions
12:55 AM 37.4 °F 23.8 °F 35.6 °F 93% 29.77 in 0.0 mi WSW 36.8 mph - N/A Fog , Rain Light Rain
1:55 AM 37.4 °F 23.3 °F 33.8 °F 87% 29.74 in 0.0 mi WSW 40.3 mph - N/A Fog , Rain Light Rain
2:00 AM 38 °F - 35 °F 82%  in 0 mi WSW 40.3 mph - - Rain Light Rain
2:55 AM 37.4 °F 23.6 °F 33.8 °F 87% 29.80 in 0.0 mi WSW 38.0 mph - N/A Fog , Rain Light Rain
3:55 AM 37.4 °F 25.9 °F 35.6 °F 93% 29.83 in 0.0 mi West 25.3 mph - N/A Fog Fog
4:55 AM 37.4 °F 25.4 °F 35.6 °F 93% 29.83 in 0.0 mi West 27.6 mph - N/A Fog Fog
5:55 AM 37.4 °F 26.9 °F 35.6 °F 93% 29.83 in 0.0 mi WSW 20.7 mph - N/A Fog Fog
6:55 AM 37.4 °F 28.2 °F 37.4 °F 100% 29.86 in 0.0 mi WSW 16.1 mph - N/A Fog Fog
7:55 AM 39.2 °F 31.2 °F 37.4 °F 93% 29.89 in 0.0 mi WSW 13.8 mph - N/A Fog Fog
8:00 AM 38 °F - 37 °F 94%  in 0 mi WSW 13.8 mph - - Fog Heavy Fog
8:55 AM 39.2 °F 28.3 °F 37.4 °F 93% 29.92 in 0.0 mi WSW 25.3 mph - N/A Fog Fog
9:55 AM 39.2 °F 27.8 °F 37.4 °F 93% 29.95 in 0.0 mi WSW 27.6 mph - N/A Fog Fog
10:55 AM 39.2 °F 29.8 °F 37.4 °F 93% 29.98 in 0.0 mi WSW 18.4 mph - N/A Fog Fog
11:55 AM 39.2 °F 30.2 °F 39.2 °F 100% 30.01 in 0.0 mi WSW 17.3 mph - N/A Fog Fog
12:55 PM 39.2 °F 28.5 °F 37.4 °F 93% 30.01 in 0.0 mi WSW 24.2 mph - N/A Fog Fog
1:55 PM 39.2 °F 27.4 °F 37.4 °F 93% 30.04 in 0.0 mi WSW 29.9 mph - N/A Fog Fog
2:00 PM 39 °F - 37 °F 91%  in 0 mi WSW 29.9 mph - - Fog Heavy Fog
2:55 PM 39.2 °F 27.0 °F 39.2 °F 100% 30.04 in 0.0 mi WSW 32.2 mph - N/A Fog Fog
3:55 PM 39.2 °F 26.1 °F 39.2 °F 100% 30.04 in 0.0 mi WSW 38.0 mph - N/A Fog Fog
4:55 PM 39.2 °F 26.5 °F 39.2 °F 100% 30.04 in 0.0 mi WSW 35.7 mph - N/A Fog Fog
5:55 PM 39.2 °F 27.8 °F 37.4 °F 93% 30.04 in 0.0 mi WSW 27.6 mph - N/A Fog Fog
6:55 PM 39.2 °F 26.6 °F 37.4 °F 93% 30.04 in 0.0 mi WSW 34.5 mph - N/A Fog Fog
7:55 PM 39.2 °F 25.4 °F 37.4 °F 93% 30.04 in 0.0 mi WSW 43.7 mph - N/A Fog Fog
8:00 PM 40 °F - 38 °F 91%  in 0 mi WSW 43.7 mph - - Fog Heavy Fog
8:55 PM 39.2 °F 24.3 °F 37.4 °F 93% 30.04 in 0.0 mi SW 52.9 mph - N/A Fog Fog
9:55 PM 39.2 °F 24.2 °F 37.4 °F 93% 30.04 in 0.0 mi SSW 54.1 mph - N/A Fog Fog
10:55 PM 39.2 °F 23.9 °F 37.4 °F 93% 30.04 in 0.0 mi SSW 56.4 mph - N/A Fog Fog
11:55 PM 39.2 °F 23.7 °F 37.4 °F 93% 30.01 in 0.0 mi SSW 58.7 mph - N/A Fog Fog